Back to catalog

SL-8 DEB

AliveLEO
NORAD 18698·DEBRIS·🇷🇺 Russia

Launched Dec 1, 1987 from Plesetsk Cosmodrome

Loading…

Next Passes (next 24 hours)

TLE

FreshSource: Space-Track

Epoch: Sep 14, 2026, 06:22 UTC

1 18698U 87098D   26257.26592199  .00000898  00000-0  22757-3 0  9990
2 18698  73.9826  56.0817 0013022 305.2719 112.0842 14.52343042 35735

Track SL-8 DEB in real time with AllMySat

Download on the App Store